Regional Weather Roundup
Issued by NWS Jackson, KY

Home | Current Version | Previous Version | Text Only | Print | Product List | Glossary Off
Versions: 1 2 3 4 5 6 7 8 9 10 11 12 13 14 15 16 17 18 19 20 21 22 23 24 25 26 27 28 29 30 31 32 33 34 35 36 37 38 39 40 41 42 43 44 45 46 47 48 49 50

000
ASUS43 KJKL 061610
RWRJKL

EAST KENTUCKY HOURLY WEATHER ROUNDUP
NATIONAL WEATHER SERVICE JACKSON KY
1200 PM EDT WED MAY 06 2015

NOTE: "FAIR" INDICATES FEW OR NO CLOUDS BELOW 12,000 FEET WITH
NO SIGNIFICANT WEATHER AND/OR OBSTRUCTIONS TO VISIBILITY.

* THESE REPORTS ARE NOT UNDER NWS QUALITY CONTROL AND MAY NOT
  REPORT WEATHER SUCH AS PRECIPITATION AND FOG.

KYZ079-080-083-085-087-088-110-112-115-119-120-061700
...EASTERN KENTUCKY...

CITY           SKY/WX    TMP DP  RH WIND       PRES   REMARKS
JACKSON        SUNNY     77  55  46 SE5       30.25S
LONDON         MOSUNNY   79  54  41 VRB3      30.23F
SOMERSET*      SUNNY     75  57  53 NW3       30.24S
MONTICELLO*    SUNNY     81  58  45 VRB6      30.25S
MIDDLESBORO*   SUNNY     76  57  50 CALM      30.24F
HARLAN APT*    SUNNY     75  54  46 CALM      30.25S
HAZARD APT*    PTSUNNY   77  57  50 CALM      30.25
BLACK MTN*       N/A     70  52  52 W1          N/A
PIKEVILLE APT* MOSUNNY   73  55  53 CALM      30.25F
BIG SANDY*     MOSUNNY   75  57  53 CALM      30.25F
MOREHEAD APT*  SUNNY     82  52  34 VRB3      30.25S
$$

KYZ035-036-041-042-044-050-067-078-099-061700
...CENTRAL KENTUCKY...

CITY           SKY/WX    TMP DP  RH WIND       PRES   REMARKS
MT STERLING*   MOSUNNY   81  54  39 NE3       30.25S
FLEMING/MASON* SUNNY     79  55  44 CALM      30.24S
DANVILLE*      CLOUDY    75  59  57 CALM      30.24S
RICHMOND*      MOSUNNY   77  57  50 CALM      30.23S
LEXINGTON      PTSUNNY   80  55  42 E3        30.23S
FRANKFORT      MOSUNNY   81  52  36 E6        30.21F
$$

KYZ091>093-OHZ055-061-077-WVZ005-015-034-035-042-061700
...SOUTHERN OHIO/WEST VIRGINIA...

CITY           SKY/WX    TMP DP  RH WIND       PRES   REMARKS
COVINGTON      MOSUNNY   81  54  39 W6        30.22S
COLUMBUS       MOSUNNY   79  57  46 W5        30.21S
DAYTON         MOSUNNY   81  56  42 W7        30.23S
WILMINGTON     SUNNY     81  53  37 N6        30.22S
HUNTINGTON     SUNNY     81  56  42 CALM      30.22F
CHARLESTON     MOSUNNY   81  54  39 W3        30.22F
PINEVILLE*     SUNNY     78  58  51 MISG      30.31F
BECKLEY        PTSUNNY   76  50  40 E3        30.29F
BLUEFIELD      MOSUNNY   78  50  37 N10       30.30F
$$

VAZ002-007-008-TNZ017-027-036-066-071-061700
...SOUTHWEST VIRGINIA/EAST TENNESSEE...

CITY           SKY/WX    TMP DP  RH WIND       PRES   REMARKS
WISE*          MOSUNNY   77  52  41 N9        30.30S
JONESVILLE*    SUNNY     77  55  47 CALM      30.26F
ABINGDON*      SUNNY     78  56  46 CALM      30.27S
BRISTOL        MOSUNNY   76  55  48 CALM      30.25F
KNOXVILLE      MOSUNNY   78  55  44 N5        30.22F
OAK RIDGE      SUNNY     79  54  41 VRB3      30.23F
CROSSVILLE     SUNNY     76  50  40 E3        30.26S
NASHVILLE      MOSUNNY   81  54  39 VRB5      30.22S
$$

...KEY TO REMARKS...
VSB - VISIBILITY IN MILES
WCI - WIND CHILL INDEX
HX  - HEAT INDEX

$$



USA.gov is the U.S. government's official web portal to all federal, state and local government web resources and services.